This demonstration page uses our WeatherBlox Daily Observations layout. Learn more.

Left ArrowRight Arrow

Hourly Observations for February 23, 2017

Temp ( °F °C ) Dew Point ( °F °C ) Humidity (%) Winds ( mph kmh ) Pressure ( in mb ) Visibility ( mi km ) Precip ( " mm )
12:05 am 00:05 Cloudy with Light Snow 30 -1.1 29 -1.7 96 96 NE 8 13 30.12 1020 3 5 0.00 0.03
12:17 am 00:17 Cloudy with Light Snow 29 -1.7 28 -2.2 96 96 NE 7 11 30.12 1020 4 6 0.00 0.03
12:53 am 00:53 Cloudy 29 -1.7 28 -2.2 96 96 NNE 7 11 30.07 1018 10 16 0.00 0.03
1:09 am 01:09 Cloudy 30 -1 28 -2 93 93 NE 7 11 30.12 1020 10 16 0.00 0.00
1:18 am 01:18 Cloudy with Light Snow 28 -2 28 -2 100 100 NE 8 13 30.15 1021 8 13 0.00 0.00
1:29 am 01:29 Cloudy with Light Snow 29 -1.7 28 -2.2 96 96 ENE 8 13 30.12 1020 4 6 0.00 0.03
1:53 am 01:53 Cloudy with Light Snow 28 -2.2 27 -2.8 96 96 NE 10 17 30.07 1018 5 8 0.00 0.03
2:01 am 02:01 Cloudy with Light Snow 28 -2.2 27 -2.8 96 96 NE 9 15 30.15 1021 6 10 0.00 0.03
2:53 am 02:53 Cloudy 27 -2.8 25 -3.9 92 92 NE 12 19 30.07 1018 10 16 0.00 0.03
3:40 am 03:40 Cloudy 27 -3 23 -5 86 86 NE 12 19 30.15 1021 10 16 0.00 0.00
3:53 am 03:53 Cloudy 25 -3.9 22 -5.6 88 88 NE 13 20 30.08 1019 10 16 0.00 0.00
4:53 am 04:53 Cloudy 25 -3.9 22 -5.6 88 88 NE 12 19 30.11 1020 10 16 0.00 0.00
5:53 am 05:53 Cloudy 24 -4.4 21 -6.1 88 88 ENE 17 28 30.12 1020 10 16 0.00 0.00
6:53 am 06:53 Cloudy 24 -4.4 21 -6.1 88 88 ENE 12 19 30.13 1020 10 16 0.00 0.00
7:25 am 07:25 Cloudy 24 -4.4 21 -6.1 88 88 NE 13 20 30.18 1022 10 16 0.00 0.00
7:53 am 07:53 Cloudy with Light Snow 24 -4.4 21 -6.1 88 88 NE 14 22 30.14 1021 6 10 0.00 0.03
8:01 am 08:01 Cloudy with Light Snow 24 -4.4 21 -6.1 88 88 NE 15 24 30.18 1022 6 10 0.00 0.03
8:53 am 08:53 Cloudy with Light Snow 24 -4.4 21 -6.1 88 88 NE 13 20 30.15 1021 4 6 0.00 0.03
9:53 am 09:53 Cloudy with Light Snow 24 -4.4 21 -6.1 88 88 NNE 15 24 30.15 1021 4 6 0.00 0.03
10:13 am 10:13 Cloudy with Light Snow 24 -4.4 20 -6.7 84 84 NE 12 19 30.18 1022 5 8 0.00 0.03
10:53 am 10:53 Cloudy with Light Snow 24 -4.4 21 -6.1 88 88 NE 15 24 30.16 1021 8 13 0.00 0.03
11:53 am 11:53 Cloudy 26 -3.3 22 -5.6 84 84 NE 14 22 30.16 1021 9 14 0.00 0.03
12:53 pm 12:53 Cloudy 27 -2.8 23 -5 85 85 ENE 13 20 30.14 1021 10 16 0.00 0.00
1:53 pm 13:53 Cloudy 28 -2.2 23 -5 81 81 ENE 13 20 30.14 1021 10 16 0.00 0.00
2:07 pm 14:07 Cloudy 28 -2.2 23 -5 81 81 ENE 10 17 30.18 1022 10 16 0.00 0.00
2:41 pm 14:41 Cloudy 28 -2.2 23 -5 81 81 ENE 12 19 30.18 1022 10 16 0.00 0.00
2:53 pm 14:53 Cloudy 28 -2.2 23 -5 81 81 ENE 12 19 30.14 1021 10 16 0.00 0.00
3:53 pm 15:53 Cloudy 28 -2.2 23 -5 81 81 ENE 13 20 30.14 1021 10 16 0.00 0.00
4:53 pm 16:53 Cloudy 28 -2.2 23 -5 81 81 E 10 17 30.14 1021 10 16 0.00 0.00
5:53 pm 17:53 Cloudy with Light Snow 27 -2.8 24 -4.4 89 89 E 15 24 30.15 1021 4 6 0.00 0.03
6:07 pm 18:07 Cloudy with Light Snow 27 -2.8 24 -4.4 89 89 E 13 20 30.18 1022 4 6 0.00 0.03
6:53 pm 18:53 Cloudy with Light Snow 27 -2.8 24 -4.4 89 89 E 10 17 30.16 1021 5 8 0.00 0.03
7:00 pm 19:00 Cloudy with Light Snow 27 -3 25 -4 93 93 E 14 22 30.18 1022 4 6 0.00 0.00
7:10 pm 19:10 Cloudy with Light Snow 27 -3 25 -4 93 93 E 14 22 30.18 1022 2 3 0.00 0.00
7:23 pm 19:23 Cloudy with Light Snow 26 -3.3 24 -4.4 92 92 E 12 19 30.18 1022 2 3 0.00 0.03
7:27 pm 19:27 Cloudy with Light Snow 26 -3.3 24 -4.4 92 92 ENE 13 20 30.18 1022 3 5 0.00 0.03
7:37 pm 19:37 Cloudy with Light Snow 26 -3.3 24 -4.4 92 92 E 12 19 30.18 1022 3 5 0.01 0.25
7:42 pm 19:42 Cloudy with Light Snow 27 -3 25 -4 93 93 E 10 17 30.18 1022 2 3 0.00 0.00
7:53 pm 19:53 Mostly Cloudy with Light Snow 26 -3.3 24 -4.4 92 92 E 9 15 30.15 1021 3 4 0.01 0.25
8:02 pm 20:02 Cloudy with Light Snow 27 -3 25 -4 93 93 E 12 19 30.18 1022 2 2 0.00 0.00
8:12 pm 20:12 Cloudy with Light Snow 27 -3 25 -4 93 93 E 10 17 30.18 1022 3 5 0.00 0.00
8:18 pm 20:18 Cloudy with Light Snow 27 -3 25 -4 93 93 E 9 15 30.18 1022 2 3 0.00 0.00
8:31 pm 20:31 Cloudy with Light Snow 26 -3.3 24 -4.4 92 92 E 10 17 30.18 1022 1 2 0.01 0.25
8:41 pm 20:41 Cloudy with Light Snow 26 -3.3 24 -4.4 92 92 E 10 17 30.18 1022 2 3 0.01 0.25
8:47 pm 20:47 Cloudy with Light Snow 27 -3 25 -4 93 93 E 12 19 30.18 1022 3 5 0.01 0.25
8:48 pm 20:48 Cloudy with Light Snow 26 -3.3 24 -4.4 92 92 E 12 19 30.14 1021 3 5 0.01 0.25
9:53 pm 21:53 Cloudy 26 -3.3 24 -4.4 92 92 E 8 13 30.13 1020 10 16 0.00 0.03
10:53 pm 22:53 Cloudy 26 -3.3 23 -5 88 88 E 6 9 30.13 1020 10 16 0.00 0.00
11:53 pm 23:53 Cloudy 20 -6.7 17 -8.3 89 89 Calm 30.14 1021 10 16 0.00 0.00

Powered by AerisWeather